Location: Chacón
(10.5789°N, 66.9317°W)
Time: 21:29:29
(UTC+00:00)

Sakura Rocket - Pass Details

Date: 13 August 2024
Orbit: 475 x 1710 km, 28.7° (Epoch: 09 September)

Event Time Altitude Azimuth Distance (km) Brightness Sun altitude
Exits shadow 09:21:47 - 301° (WNW) 3,402 6.5 -14.1°
Reaches altitude 10° 09:23:17 10° 302° (WNW) 2,910 6.1 -13.7°
Maximum altitude 09:30:43 78° 29° (NNE) 1,363 4.8 -12.0°
Drops below altitude 10° 09:40:40 10° 115° (ESE) 3,807 7.8 -9.7°
Sets 09:44:10 0° 116° (ESE) 4,888 8.4 -8.8°
